1516006800.64,53235,10.81,73198.0,-1.83,-45.33,-45.67,0,*59
1516006801.88,53236,10.81,73198.3,-1.85,-44.73,-44.87,0,*56
1516006803.1,53237,10.81,73196.0,-1.85,-43.87,-44.47,0,*57
1516006804.33,53238,10.81,73198.5,-1.85,-44.61,-45.27,0,*50
1516006805.56,53239,10.81,73196.5,-1.85,-45.07,-45.67,0,*54
1516006806.81,53240,10.88,73202.5,-1.87,-44.67,-45.13,0,*5C
1516006808.09,53241,10.88,73198.8,-1.87,-43.67,-44.21,0,*5A
1516006809.3,53242,10.88,73200.3,-1.89,-43.01,-43.49,0,*5E
1516006810.54,53243,10.81,73198.0,-1.87,-43.01,-43.41,0,*59
1516006811.77,53244,10.81,73196.8,-1.87,-43.41,-44.07,0,*5F
1516006812.99,53245,10.81,73198.0,-1.87,-43.49,-43.87,0,*59
1516006814.27,53246,10.88,73200.5,-1.87,-42.83,-43.29,0,*59
1516006815.5,53247,10.81,73198.8,-1.85,-42.95,-43.41,0,*53
1516006816.72,53248,10.88,73196.8,-1.85,-43.01,-43.49,0,*58
1516006817.98,53249,10.88,73202.0,-1.83,-42.51,-42.95,0,*5B
1516006819.26,53250,10.88,73198.5,-1.83,-42.69,-43.21,0,*56
1516006820.5,53251,10.88,73198.8,-1.83,-42.89,-43.41,0,*5F
1516006821.77,53252,10.88,73200.8,-1.83,-43.61,-44.21,0,*5A
1516006823.03,53253,10.88,73202.5,-1.83,-43.61,-44.21,0,*5B
1516006824.28,53254,10.88,73196.8,-1.83,-43.81,-44.53,0,*57
1516006825.52,53255,10.88,73198.8,-1.83,-43.35,-43.95,0,*54
1516006826.73,53256,10.81,73196.5,-1.81,-44.99,-45.61,0,*59
1516006827.98,53257,10.88,73196.8,-1.83,-44.87,-45.61,0,*55
1516006829.24,53258,10.88,73200.3,-1.85,-44.73,-45.27,0,*55
1516006830.47,53259,10.88,73200.8,-1.83,-44.41,-44.87,0,*58
1516006831.68,53260,10.88,73202.8,-1.85,-44.87,-45.67,0,*51
1516006832.92,53261,10.88,73198.5,-1.89,-44.73,-45.33,0,*56
1516006834.16,53262,10.88,73200.8,-1.87,-43.87,-44.67,0,*57
1516006835.42,53263,10.81,73198.5,-1.87,-43.41,-43.67,0,*5B
1516006836.67,53264,10.88,73200.0,-1.87,-42.57,-43.15,0,*5F
1516006837.89,53265,10.88,73200.8,-1.85,-42.57,-43.15,0,*5C
1516006839.12,53266,10.88,73200.8,-1.85,-42.63,-43.21,0,*5F
1516006840.33,53267,10.88,73202.5,-1.85,-42.25,-42.63,0,*5B
1516006841.59,53268,10.88,73198.5,-1.83,-42.37,-43.09,0,*5C
1516006842.87,53269,10.81,73196.0,-1.83,-43.55,-44.13,0,*54
1516006844.11,53270,10.88,73198.8,-1.81,-42.51,-43.09,0,*57
1516006845.32,53271,10.81,73196.5,-1.81,-42.89,-43.35,0,*5C
1516006846.61,53272,10.88,73200.0,-1.77,-42.45,-43.09,0,*59
1516006847.87,53273,10.88,73202.3,-1.81,-42.31,-42.95,0,*56
1516006849.11,53274,10.88,73200.0,-1.75,-42.19,-42.63,0,*59
1516006850.38,53275,10.88,73198.8,-1.77,-42.19,-42.75,0,*5D
1516006851.62,53276,10.88,73202.3,-1.75,-42.75,-43.09,0,*5C
1516006852.86,53277,10.88,73200.8,-1.73,-42.89,-43.35,0,*57
1516006854.12,53278,10.88,73198.3,-1.75,-42.57,-43.09,0,*52
1516006855.37,53279,10.88,73202.3,-1.73,-42.69,-43.15,0,*55
1516006856.64,53280,10.88,73202.0,-1.73,-43.21,-43.81,0,*53
1516006857.87,53281,10.88,73200.5,-1.73,-43.95,-44.41,0,*56
1516006859.12,53282,10.88,73200.8,-1.73,-43.95,-44.47,0,*53
1516006860.39,53283,10.88,73200.0,-1.73,-44.13,-44.67,0,*59
1516006861.63,53284,10.88,73202.5,-1.75,-43.61,-44.21,0,*58
1516006862.89,53285,10.88,73200.0,-1.73,-43.35,-44.13,0,*5F
1516006864.15,53286,10.88,73200.0,-1.73,-42.69,-43.35,0,*57
1516006865.38,53287,10.88,73202.0,-1.73,-42.51,-43.01,0,*5A
1516006866.59,53288,10.88,73200.8,-1.71,-42.51,-43.01,0,*57
1516006867.8,53289,10.88,73198.0,-1.71,-41.99,-42.51,0,*55
1516006869.06,53290,10.88,73198.0,-1.69,-42.13,-42.83,0,*5A
1516006870.32,53291,10.88,73200.0,-1.69,-42.95,-43.75,0,*5D
1516006871.61,53292,10.88,73200.3,-1.69,-43.55,-44.13,0,*54
1516006872.87,53293,10.88,73202.0,-1.69,-43.15,-43.67,0,*55
1516006874.1,53294,10.88,73200.0,-1.69,-43.49,-44.07,0,*5A
1516006875.34,53295,10.88,73200.8,-1.71,-43.75,-44.33,0,*5A
1516006876.59,53296,10.88,73200.0,-1.69,-43.55,-44.07,0,*55
1516006877.83,53297,10.88,73202.0,-1.69,-44.07,-44.61,0,*54
1516006879.08,53298,10.88,73198.5,-1.69,-43.55,-44.27,0,*59
1516006880.37,53299,10.88,73202.5,-1.69,-43.55,-44.21,0,*5E
1516006881.63,53300,10.88,73200.5,-1.69,-43.49,-44.13,0,*53
1516006882.89,53301,10.88,73198.5,-1.69,-42.13,-42.83,0,*53
1516006884.15,53302,10.88,73202.8,-1.69,-42.51,-43.09,0,*55
1516006885.41,53303,10.88,73198.0,-1.67,-42.45,-43.09,0,*5F
1516006886.65,53304,10.88,73202.3,-1.67,-42.31,-42.89,0,*52
1516006887.91,53305,10.88,73202.0,-1.65,-42.25,-42.83,0,*5E
1516006889.16,53306,10.88,73200.0,-1.65,-41.99,-42.57,0,*50
1516006890.4,53307,10.88,73198.3,-1.61,-41.61,-42.13,0,*52
1516006891.63,53308,10.88,73200.0,-1.63,-41.55,-41.99,0,*59
1516006892.9,53309,10.88,73202.8,-1.61,-41.93,-42.75,0,*51
1516006894.18,53310,10.88,73200.0,-1.61,-42.57,-43.21,0,*52
1516006895.44,53311,10.88,73200.8,-1.61,-42.57,-43.35,0,*56
1516006896.68,53312,10.88,73198.5,-1.59,-43.49,-44.21,0,*52
1516006897.92,53313,10.88,73202.0,-1.55,-42.89,-43.55,0,*56
1516006899.13,53314,10.88,73198.5,-1.59,-42.89,-43.75,0,*5F
1516006900.37,53315,10.88,73202.3,-1.59,-43.09,-44.07,0,*55
1516006901.58,53316,10.88,73198.0,-1.55,-43.35,-44.07,0,*55
1516006902.8,53317,10.88,73202.0,-1.59,-42.75,-43.49,0,*50
1516006904.04,53318,10.88,73198.0,-1.59,-43.29,-43.95,0,*56
1516006905.25,53319,10.88,73198.5,-1.59,-43.49,-44.07,0,*5D
1516006906.51,53320,10.88,73202.0,-1.55,-43.55,-44.13,0,*53
1516006907.71,53321,10.88,73200.0,-1.59,-43.15,-43.87,0,*50
1516006908.95,53322,10.88,73200.3,-1.59,-42.69,-43.15,0,*52
1516006910.19,53323,10.88,73204.3,-1.59,-42.63,-43.29,0,*56
1516006911.4,53324,10.88,73202.0,-1.55,-43.75,-44.61,0,*50
1516006912.61,53325,10.88,73200.5,-1.59,-44.07,-44.79,0,*56
1516006913.81,53326,10.88,73202.0,-1.59,-43.87,-44.53,0,*52
1516006915.06,53327,10.88,73200.3,-1.59,-43.29,-43.95,0,*5A
1516006916.3,53328,10.88,73200.8,-1.55,-42.31,-42.75,0,*5E
1516006917.57,53329,10.88,73200.8,-1.59,-42.95,-43.55,0,*5E
1516006918.82,53330,10.88,73200.8,-1.55,-43.55,-44.13,0,*52
1516006920.06,53331,10.88,73202.3,-1.59,-43.75,-44.33,0,*5F
1516006921.28,53332,10.88,73204.0,-1.55,-42.89,-43.35,0,*53
1516006922.51,53333,10.88,73202.8,-1.55,-43.49,-44.13,0,*5C
1516006923.75,53334,10.88,73202.3,-1.55,-43.49,-44.13,0,*5B
1516006924.98,53335,10.88,73198.0,-1.59,-44.07,-44.73,0,*5D
1516006926.24,53336,10.88,73202.8,-1.55,-44.13,-44.73,0,*57
1516006927.48,53337,10.88,73200.5,-1.59,-43.95,-44.73,0,*53
1516006928.72,53338,10.88,73202.8,-1.59,-44.21,-44.99,0,*50
1516006929.99,53339,10.88,73200.5,-1.59,-44.21,-44.93,0,*5B
1516006931.23,53340,10.88,73200.5,-1.61,-43.75,-44.27,0,*57
1516006932.51,53341,10.88,73200.8,-1.61,-44.01,-44.47,0,*54
1516006933.79,53342,10.88,73202.8,-1.61,-43.81,-44.47,0,*58
1516006935.05,53343,10.88,73200.5,-1.61,-44.13,-44.87,0,*59
1516006936.33,53344,10.88,73206.3,-1.61,-44.01,-44.67,0,*53
1516006937.57,53345,10.88,73200.5,-1.63,-44.21,-44.87,0,*5C
1516006938.81,53346,10.88,73198.8,-1.63,-44.27,-45.07,0,*50
1516006940.08,53347,10.88,73200.0,-1.65,-44.27,-44.93,0,*5B
1516006941.37,53348,10.88,73202.8,-1.65,-44.21,-44.93,0,*52
1516006942.63,53349,10.88,73200.8,-1.65,-44.01,-44.53,0,*5D
1516006943.9,53350,10.88,73200.5,-1.65,-43.81,-44.47,0,*5F
1516006945.14,53351,10.88,73206.5,-1.63,-43.01,-43.81,0,*5D
1516006946.37,53352,10.88,73202.0,-1.61,-43.15,-43.95,0,*5C
1516006947.63,53353,10.88,73206.8,-1.63,-43.81,-44.47,0,*5A
1516006948.85,53354,10.88,73202.3,-1.63,-43.15,-43.81,0,*5D
1516006950.07,53355,10.88,73200.5,-1.63,-41.99,-42.75,0,*50
1516006951.31,53356,10.88,73200.3,-1.61,-41.99,-42.75,0,*51
1516006952.58,53357,10.88,73204.5,-1.61,-42.95,-43.61,0,*5B
1516006953.84,53358,10.88,73202.3,-1.61,-43.35,-44.01,0,*5E
1516006955.07,53359,10.88,73202.0,-1.61,-43.15,-43.95,0,*57
1516006956.31,53360,10.88,73200.8,-1.59,-43.49,-44.13,0,*56
1516006957.55,53361,10.88,73204.0,-1.59,-43.49,-44.21,0,*56
1516006958.76,53362,10.88,73196.0,-1.59,-43.49,-44.07,0,*51
1516006960.0,53363,10.88,73202.8,-1.59,-43.09,-43.75,0,*56
1516006961.25,53364,10.88,73202.8,-1.59,-42.69,-43.35,0,*52
1516006962.51,53365,10.88,73202.5,-1.55,-42.45,-43.09,0,*5E
1516006963.75,53366,10.88,73202.5,-1.59,-42.51,-43.09,0,*54
1516006964.99,53367,10.88,73200.8,-1.59,-42.95,-43.75,0,*56
1516006966.21,53368,10.88,73200.3,-1.55,-42.75,-43.35,0,*5F
1516006967.47,53369,10.88,73200.0,-1.53,-42.37,-43.09,0,*51
1516006968.73,53370,10.88,73200.0,-1.53,-42.37,-43.09,0,*59
1516006969.98,53371,10.88,73202.3,-1.51,-42.57,-43.21,0,*56
1516006971.22,53372,10.88,73202.3,-1.53,-42.37,-43.01,0,*53
1516006972.43,53373,10.88,73202.5,-1.51,-42.63,-43.41,0,*55
1516006973.68,53374,10.88,73200.8,-1.49,-42.63,-43.55,0,*5E
1516006974.92,53375,10.88,73198.3,-1.49,-42.63,-43.41,0,*5A
1516006976.2,53376,10.88,73200.0,-1.49,-42.83,-43.55,0,*52
1516006977.46,53377,10.88,73200.5,-1.49,-42.19,-43.01,0,*51
1516006978.72,53378,10.88,73202.0,-1.49,-42.37,-42.95,0,*5E
1516006980.0,53379,10.88,73200.8,-1.47,-41.93,-42.57,0,*52
1516006981.23,53380,10.88,73204.0,-1.45,-41.73,-42.57,0,*58
1516006982.44,53381,10.88,73202.8,-1.45,-41.49,-42.13,0,*50
1516006983.72,53382,10.88,73204.5,-1.43,-41.23,-42.05,0,*5E
1516006984.98,53383,10.88,73204.0,-1.39,-41.99,-42.69,0,*59
1516006986.23,53384,10.88,73202.8,-1.41,-41.81,-42.45,0,*56
1516006987.49,53385,10.88,73202.8,-1.39,-41.93,-42.63,0,*5F
1516006988.75,53386,10.88,73202.8,-1.39,-42.57,-43.35,0,*55
1516006990.01,53387,10.88,73202.0,-1.39,-41.81,-42.37,0,*5F
1516006991.23,53388,10.88,73198.8,-1.35,-41.49,-42.13,0,*5E
1516006992.46,53389,10.88,73200.0,-1.35,-41.11,-41.73,0,*57
1516006993.69,53390,10.88,73202.5,-1.31,-41.29,-41.73,0,*50
1516006994.97,53391,10.88,73202.8,-1.31,-41.67,-42.31,0,*5E
1516006996.2,53392,10.88,73202.5,-1.29,-41.29,-42.05,0,*59
1516006997.46,53393,10.88,73202.3,-1.27,-41.81,-42.63,0,*54
1516006998.69,53394,10.88,73200.3,-1.29,-41.87,-42.45,0,*5F
1516006999.91,53395,10.88,73202.8,-1.27,-41.29,-41.99,0,*56
1516007001.17,53396,10.88,73204.3,-1.27,-41.49,-42.19,0,*58
1516007002.4,53397,10.88,73198.0,-1.23,-41.61,-42.25,0,*58
1516007003.66,53398,10.88,73198.8,-1.23,-41.41,-42.19,0,*5A
1516007004.92,53399,10.88,73202.0,-1.21,-41.55,-42.31,0,*56
1516007006.17,53400,10.88,73202.8,-1.19,-42.25,-42.83,0,*57
1516007007.45,53401,10.88,73200.8,-1.19,-41.81,-42.45,0,*51
1516007008.71,53402,10.88,73200.5,-1.19,-41.67,-42.25,0,*5C
1516007009.96,53403,10.88,73200.0,-1.19,-41.81,-42.63,0,*57
1516007011.19,53404,10.88,73204.0,-1.19,-42.25,-43.01,0,*58
1516007012.42,53405,10.88,73202.0,-1.17,-41.81,-42.51,0,*5E
1516007013.64,53406,10.88,73200.3,-1.15,-41.99,-42.63,0,*57
1516007014.84,53407,10.88,73202.3,-1.17,-42.25,-43.01,0,*55
1516007016.1,53408,10.88,73202.3,-1.15,-41.81,-42.45,0,*54
1516007017.37,53409,10.88,73202.8,-1.15,-41.55,-42.19,0,*55
1516007018.62,53410,10.88,73198.3,-1.11,-41.35,-41.93,0,*5E
1516007019.91,53411,10.88,73202.3,-1.13,-41.81,-42.57,0,*59
1516007021.12,53412,10.88,73204.8,-1.11,-42.13,-42.75,0,*50
1516007022.33,53413,10.88,73202.5,-1.11,-41.29,-41.87,0,*55
1516007023.54,53414,10.88,73200.0,-1.11,-41.11,-41.73,0,*52
1516007024.76,53415,10.88,73198.5,-1.07,-41.29,-41.93,0,*51
1516007025.99,53416,10.88,73200.3,-1.07,-41.29,-41.93,0,*52
1516007027.22,53417,10.88,73200.0,-1.05,-42.13,-42.89,0,*53
1516007028.46,53418,10.88,73196.8,-1.03,-42.13,-42.83,0,*50
1516007029.74,53419,10.88,73202.8,-1.05,-42.45,-43.09,0,*57
1516007031.0,53420,10.88,73202.0,-1.05,-42.31,-43.01,0,*56
1516007032.24,53421,10.88,73202.8,-1.03,-42.05,-42.63,0,*53
1516007033.52,53422,10.88,73204.0,-1.05,-42.31,-43.29,0,*5E
1516007034.78,53423,10.88,73206.3,-1.05,-43.21,-43.95,0,*58
1516007036.02,53424,10.88,73200.0,-1.03,-43.01,-43.67,0,*56
1516007037.23,53425,10.88,73200.0,-1.03,-41.87,-42.51,0,*5F
1516007038.46,53426,10.88,73198.8,-1.03,-42.05,-42.89,0,*50
1516007039.7,53427,10.88,73202.5,-1.03,-42.51,-43.09,0,*59
1516007040.93,53428,10.88,73202.5,-1.01,-41.87,-42.37,0,*50
1516007042.14,53429,10.88,73202.8,-1.03,-41.99,-42.63,0,*5D
1516007043.4,53430,10.88,73202.8,-1.01,-41.73,-42.45,0,*57
1516007044.64,53431,10.88,73202.5,-1.01,-41.99,-42.75,0,*51
1516007045.87,53432,10.88,73202.0,-1.01,-41.87,-42.25,0,*58
1516007047.15,53433,10.88,73202.8,-1.01,-42.05,-42.83,0,*5C
1516007048.4,53434,10.88,73200.5,-0.97,-41.99,-42.57,0,*6A
1516007049.65,53435,10.88,73202.0,-0.99,-42.05,-42.57,0,*63
1516007050.87,53436,10.88,73202.0,-0.99,-41.87,-42.57,0,*69
1516007052.11,53437,10.88,73202.3,-0.97,-42.13,-42.75,0,*68
1516007053.39,53438,10.88,73202.8,-0.97,-42.19,-42.95,0,*63
1516007054.65,53439,10.88,73200.0,-0.97,-42.51,-43.09,0,*6A
1516007055.9,53440,10.88,73204.3,-0.97,-42.89,-43.55,0,*68
1516007057.13,53441,10.88,73202.8,-0.95,-42.31,-42.89,0,*68
1516007058.38,53442,10.88,73198.0,-0.93,-42.13,-42.83,0,*67
1516007059.59,53443,10.88,73200.5,-0.95,-42.25,-42.89,0,*6F
1516007060.84,53444,10.88,73202.8,-0.95,-42.31,-43.09,0,*64
1516007062.07,53445,10.88,73200.8,-0.95,-42.83,-43.35,0,*63
1516007063.3,53446,10.88,73204.5,-0.95,-42.31,-43.01,0,*6E
1516007064.56,53447,10.94,73206.5,-0.95,-42.45,-43.09,0,*64
1516007065.83,53448,10.88,73200.5,-0.93,-42.69,-43.29,0,*61
1516007067.06,53449,10.88,73204.0,-0.93,-42.63,-43.15,0,*65
1516007068.31,53450,10.88,73204.3,-0.93,-42.31,-43.01,0,*6F
1516007069.58,53451,10.88,73202.8,-0.93,-42.69,-43.29,0,*69
1516007070.84,53452,10.88,73200.8,-0.93,-41.93,-42.51,0,*62
1516007072.04,53453,10.88,73200.8,-0.95,-42.51,-43.01,0,*6C
1516007073.29,53454,10.88,73202.5,-0.93,-42.13,-42.83,0,*60
1516007074.52,53455,10.88,73200.3,-0.95,-42.13,-42.69,0,*63
1516007075.77,53456,10.88,73202.0,-0.93,-42.45,-43.01,0,*6A
1516007076.99,53457,10.88,73202.0,-0.91,-42.63,-43.21,0,*6F
1516007078.2,53458,10.88,73206.0,-0.91,-41.87,-42.37,0,*6F
1516007079.4,53459,10.88,73200.5,-0.91,-41.87,-42.25,0,*6D
1516007080.65,53460,10.94,73204.0,-0.89,-41.41,-42.05,0,*66
1516007081.92,53461,10.88,73200.0,-0.89,-41.35,-41.81,0,*6B
1516007083.14,53462,10.94,73206.3,-0.89,-41.41,-41.99,0,*62
1516007084.39,53463,10.88,73200.5,-0.89,-41.99,-42.57,0,*67
1516007085.64,53464,10.94,73204.0,-0.83,-41.55,-42.13,0,*6A
1516007086.89,53465,10.88,73200.8,-0.83,-41.55,-42.13,0,*6B
1516007088.11,53466,10.88,73202.5,-0.85,-41.61,-42.13,0,*69
1516007089.36,53467,10.88,73202.8,-0.83,-41.55,-42.13,0,*69
1516007090.64,53468,10.88,73200.8,-0.83,-41.55,-41.93,0,*6D
1516007091.87,53469,10.88,73200.0,-0.81,-42.05,-42.63,0,*64
1516007093.09,53470,10.88,73202.3,-0.81,-41.49,-41.93,0,*6B
1516007094.32,53471,10.88,73200.3,-0.81,-41.67,-42.25,0,*68
1516007095.56,53472,10.88,73204.0,-0.81,-42.05,-42.63,0,*6E
1516007096.81,53473,10.88,73202.0,-0.79,-41.67,-42.37,0,*6E
1516007098.01,53474,10.88,73202.3,-0.77,-41.49,-41.87,0,*63
1516007099.23,53475,10.88,73202.3,-0.77,-42.63,-43.29,0,*6F
1516007100.46,53476,10.88,73202.8,-0.77,-43.67,-44.27,0,*60
1516007101.68,53477,10.88,73202.8,-0.79,-44.07,-44.53,0,*6D
1516007102.96,53478,10.88,73202.8,-0.79,-43.29,-44.01,0,*6E
1516007104.19,53479,10.88,73200.8,-0.81,-42.83,-43.35,0,*69
1516007105.41,53480,10.94,73206.0,-0.81,-41.73,-42.45,0,*65
1516007106.67,53481,10.88,73200.3,-0.81,-41.67,-42.31,0,*62
1516007107.91,53482,10.88,73200.0,-0.79,-43.01,-43.61,0,*60
1516007109.16,53483,10.88,73202.3,-0.79,-42.57,-43.01,0,*65
1516007110.41,53484,10.88,73200.0,-0.79,-41.81,-42.25,0,*6D
1516007111.66,53485,10.88,73202.5,-0.79,-41.87,-42.57,0,*6F
1516007112.91,53486,10.88,73202.5,-0.79,-42.75,-43.21,0,*62
1516007114.15,53487,10.88,73200.5,-0.81,-42.83,-43.35,0,*68
1516007115.37,53488,10.88,73200.5,-0.79,-42.89,-43.49,0,*61
1516007116.62,53489,10.88,73202.0,-0.79,-42.57,-42.89,0,*6E
1516007117.87,53490,10.88,73200.5,-0.79,-41.99,-42.45,0,*67
1516007119.12,53491,10.88,73200.0,-0.79,-41.99,-42.45,0,*66
1516007120.4,53492,10.88,73198.3,-0.79,-41.81,-42.45,0,*6C
1516007121.62,53493,10.88,73204.0,-0.77,-41.99,-42.57,0,*69
1516007122.82,53494,10.88,73202.3,-0.77,-41.99,-42.63,0,*69
1516007124.08,53495,10.88,73204.0,-0.75,-42.31,-42.75,0,*6C
1516007125.31,53496,10.88,73200.8,-0.77,-42.95,-43.87,0,*6F
1516007126.58,53497,10.88,73196.3,-0.75,-43.55,-44.01,0,*68
1516007127.84,53498,10.88,73200.8,-0.75,-42.83,-43.41,0,*6E
1516007129.06,53499,10.88,73202.0,-0.77,-43.29,-43.87,0,*66
1516007130.31,53500,10.88,73202.3,-0.77,-43.67,-44.13,0,*67
1516007131.55,53501,10.94,73204.0,-0.77,-42.45,-42.83,0,*68
1516007132.78,53502,10.88,73202.5,-0.77,-42.05,-42.63,0,*61
1516007134.02,53503,10.88,73200.8,-0.75,-42.13,-42.75,0,*62
1516007135.3,53504,10.88,73202.0,-0.75,-42.19,-42.69,0,*62
1516007136.52,53505,10.88,73202.3,-0.77,-41.87,-42.45,0,*6B
1516007137.77,53506,10.88,73202.8,-0.75,-41.81,-42.37,0,*69
1516007139.03,53507,10.88,73202.3,-0.75,-41.61,-42.31,0,*60
1516007140.25,53508,10.88,73202.3,-0.73,-41.99,-42.57,0,*6E
1516007141.51,53509,10.94,73204.8,-0.71,-41.93,-42.63,0,*60
1516007142.73,53510,10.88,73202.0,-0.73,-41.73,-42.19,0,*69
1516007143.96,53511,10.88,73200.0,-0.69,-41.23,-41.73,0,*69
1516007145.21,53512,10.88,73202.3,-0.69,-41.35,-41.93,0,*63
1516007146.46,53513,10.88,73202.0,-0.67,-41.61,-42.19,0,*6C
1516007147.69,53514,10.88,73202.0,-0.69,-41.67,-42.25,0,*6C
1516007148.94,53515,10.94,73206.0,-0.69,-41.55,-42.05,0,*6E
1516007150.17,53516,10.88,73200.5,-0.67,-41.41,-41.87,0,*6F
1516007151.44,53517,10.94,73204.5,-0.67,-41.23,-41.81,0,*6C
1516007152.64,53518,10.88,73204.3,-0.61,-41.41,-41.99,0,*68
1516007153.87,53519,10.88,73202.5,-0.61,-41.11,-41.55,0,*6C
1516007155.09,53520,10.88,73202.5,-0.61,-41.41,-41.93,0,*69
1516007156.34,53521,10.88,73204.0,-0.59,-41.11,-41.55,0,*6C
1516007157.62,53522,10.94,73204.5,-0.59,-41.35,-42.05,0,*6F
1516007158.88,53523,10.88,73200.8,-0.59,-41.67,-42.25,0,*6B
1516007160.16,53524,10.88,73200.3,-0.59,-41.93,-42.45,0,*61
1516007161.39,53525,10.88,73200.0,-0.57,-41.93,-42.51,0,*6B
1516007162.64,53526,10.88,73196.5,-0.57,-41.67,-42.31,0,*65
1516007163.85,53527,10.88,73202.5,-0.57,-41.87,-42.25,0,*6F
1516007165.1,53528,10.88,73196.5,-0.57,-41.93,-42.31,0,*60
1516007166.33,53529,10.88,73200.3,-0.57,-42.13,-42.69,0,*67
1516007167.58,53530,10.88,73198.0,-0.55,-41.49,-42.05,0,*6B
1516007168.82,53531,10.88,73202.3,-0.55,-41.49,-42.05,0,*6A
1516007170.04,53532,10.88,73202.3,-0.53,-41.81,-42.25,0,*69
1516007171.27,53533,10.88,73198.5,-0.53,-41.41,-42.05,0,*66
1516007172.52,53534,10.88,73202.5,-0.53,-41.67,-42.19,0,*68
1516007173.72,53535,10.88,73202.8,-0.53,-41.29,-41.87,0,*67
1516007174.94,53536,10.88,73202.8,-0.51,-41.41,-42.13,0,*66
1516007176.17,53537,10.88,73202.5,-0.51,-41.41,-41.99,0,*66
1516007177.45,53538,10.88,73200.3,-0.51,-41.35,-41.93,0,*60
1516007178.7,53539,10.88,73198.0,-0.51,-41.61,-42.19,0,*61
1516007179.96,53540,10.88,73202.5,-0.51,-42.31,-43.01,0,*61
1516007181.19,53541,10.88,73200.3,-0.49,-42.57,-43.01,0,*69
1516007182.44,53542,10.88,73196.8,-0.49,-41.93,-42.45,0,*60
1516007183.69,53543,10.88,73202.8,-0.51,-41.81,-42.37,0,*6E
1516007184.94,53544,10.88,73200.3,-0.49,-42.19,-42.45,0,*67
1516007186.18,53545,10.88,73202.0,-0.49,-42.31,-42.75,0,*6F
1516007187.41,53546,10.88,73202.8,-0.49,-41.93,-42.37,0,*61
1516007188.63,53547,10.88,73206.3,-0.49,-42.63,-43.21,0,*6A
1516007189.86,53548,10.88,73202.5,-0.49,-42.75,-43.21,0,*62
1516007191.1,53549,10.88,73200.3,-0.47,-41.49,-41.93,0,*6A
1516007192.36,53550,10.88,73200.3,-0.47,-41.11,-41.67,0,*64
1516007193.64,53551,10.88,73200.5,-0.47,-41.67,-42.31,0,*64
1516007194.87,53552,10.88,73200.8,-0.45,-42.95,-43.61,0,*6F
1516007196.1,53553,10.88,73204.0,-0.45,-44.01,-44.79,0,*6B
1516007197.38,53554,10.88,73200.8,-0.47,-42.95,-43.55,0,*6C
1516007198.63,53555,10.88,73202.5,-0.47,-42.37,-43.09,0,*6C
1516007199.87,53556,10.88,73198.8,-0.47,-42.13,-42.75,0,*63
1516007201.09,53557,10.88,73204.3,-0.47,-42.37,-42.89,0,*67
1516007202.35,53558,10.88,73200.5,-0.47,-42.25,-42.95,0,*66
1516007203.6,53559,10.88,73200.0,-0.47,-42.05,-42.51,0,*6D
1516007204.87,53560,10.88,73202.3,-0.47,-42.57,-43.29,0,*6E
1516007206.12,53561,10.88,73200.3,-0.47,-42.51,-43.09,0,*6B
1516007207.38,53562,10.88,73200.0,-0.47,-42.25,-42.95,0,*6F
1516007208.63,53563,10.88,73200.0,-0.45,-42.69,-43.29,0,*62
1516007209.84,53564,10.94,73206.5,-0.49,-42.63,-43.35,0,*6E
1516007211.08,53565,10.94,73206.5,-0.47,-42.51,-43.29,0,*6D
1516007212.34,53566,10.88,73200.0,-0.47,-42.57,-43.35,0,*65
1516007213.62,53567,10.88,73200.3,-0.47,-42.31,-42.95,0,*6F
1516007214.87,53568,10.88,73200.0,-0.47,-42.31,-42.89,0,*6D
1516007216.15,53569,10.88,73200.5,-0.47,-42.31,-42.95,0,*61
1516007217.4,53570,10.88,73202.0,-0.47,-42.37,-42.95,0,*6F
1516007218.63,53571,10.88,73202.3,-0.47,-42.75,-43.35,0,*63
1516007219.92,53572,10.88,73204.8,-0.47,-42.95,-43.55,0,*68
1516007221.17,53573,10.88,73200.8,-0.47,-43.09,-43.75,0,*6F
1516007222.41,53574,10.88,73200.3,-0.47,-43.35,-44.01,0,*63
1516007223.67,53575,10.88,73200.8,-0.49,-43.21,-43.67,0,*6E
1516007224.9,53576,10.88,73200.3,-0.49,-42.57,-43.35,0,*6A
1516007226.15,53577,10.88,73200.0,-0.47,-42.51,-43.09,0,*6C
1516007227.38,53578,10.88,73202.0,-0.49,-42.37,-42.83,0,*6E
1516007228.66,53579,10.88,73200.8,-0.47,-42.31,-43.09,0,*64
1516007229.94,53580,10.94,73206.5,-0.47,-42.95,-43.55,0,*65
1516007231.21,53581,10.88,73198.8,-0.47,-43.55,-44.33,0,*6E
1516007232.46,53582,10.88,73202.3,-0.47,-43.29,-43.75,0,*63
1516007233.71,53583,10.88,73200.0,-0.49,-43.21,-43.81,0,*6F
1516007234.91,53584,10.88,73200.8,-0.49,-42.63,-43.35,0,*60
1516007236.14,53585,10.88,73200.5,-0.49,-42.57,-43.15,0,*64
1516007237.35,53586,10.88,73202.0,-0.49,-42.37,-43.15,0,*61
1516007238.6,53587,10.88,73202.5,-0.49,-42.83,-43.21,0,*68
1516007239.88,53588,10.88,73200.3,-0.51,-42.83,-43.55,0,*6D
1516007241.07,53589,10.88,73200.5,-0.49,-43.15,-43.87,0,*64
1516007242.29,53590,10.88,73204.0,-0.49,-43.01,-43.61,0,*61
1516007243.52,53591,10.88,73200.0,-0.49,-42.83,-43.41,0,*69
1516007244.78,53592,10.88,73202.3,-0.49,-42.95,-43.55,0,*68
1516007245.99,53593,10.88,73200.8,-0.49,-42.75,-43.35,0,*61
1516007247.24,53594,10.88,73202.0,-0.51,-42.57,-43.15,0,*6D
1516007248.48,53595,10.88,73202.5,-0.49,-42.37,-42.95,0,*6A
1516007249.73,53596,10.88,73202.3,-0.51,-42.63,-43.21,0,*6F
1516007250.94,53597,10.88,73202.0,-0.49,-42.75,-43.35,0,*65
1516007252.21,53598,10.88,73202.5,-0.51,-42.45,-43.21,0,*65
1516007253.47,53599,10.88,73204.0,-0.49,-42.31,-42.83,0,*67
1516007254.72,53600,10.88,73200.0,-0.49,-42.31,-42.83,0,*64
1516007255.97,53601,10.88,73202.0,-0.51,-42.45,-43.01,0,*64
1516007257.21,53602,10.88,73202.0,-0.49,-41.61,-42.31,0,*69
1516007258.44,53603,10.88,73200.8,-0.49,-41.55,-41.99,0,*6E
1516007259.67,53604,10.88,73200.8,-0.49,-41.61,-42.19,0,*65
1516007260.95,53605,10.88,73200.5,-0.47,-41.35,-42.05,0,*66
1516007262.18,53606,10.88,73200.3,-0.45,-42.51,-43.09,0,*6B
1516007263.38,53607,10.88,73200.5,-0.45,-42.75,-43.35,0,*63
1516007264.63,53608,10.88,73202.0,-0.47,-42.57,-43.15,0,*6C
1516007265.86,53609,10.88,73200.8,-0.45,-42.89,-43.55,0,*68
1516007267.11,53610,10.88,73202.0,-0.47,-42.75,-43.29,0,*6A
1516007268.34,53611,10.88,73202.5,-0.47,-42.89,-43.35,0,*65
1516007269.58,53612,10.88,73200.3,-0.47,-42.75,-43.29,0,*68
1516007270.82,53613,10.88,73202.0,-0.47,-42.75,-43.35,0,*64
1516007272.09,53614,10.88,73202.8,-0.47,-42.69,-43.29,0,*63
1516007273.34,53615,10.88,73202.5,-0.47,-42.69,-43.15,0,*6D
1516007274.59,53616,10.88,73202.5,-0.51,-42.83,-43.41,0,*6C
1516007275.82,53617,10.88,73200.0,-0.51,-42.63,-43.35,0,*60
1516007277.05,53618,10.88,73200.0,-0.49,-42.63,-43.21,0,*63
1516007278.26,53619,10.88,73200.3,-0.49,-42.63,-43.35,0,*67
1516007279.51,53620,10.88,73200.8,-0.51,-42.57,-43.15,0,*61
1516007280.76,53621,10.88,73202.5,-0.49,-42.57,-43.21,0,*6E
1516007281.99,53622,10.88,73202.8,-0.51,-42.75,-43.35,0,*61
1516007283.24,53623,10.88,73202.8,-0.49,-42.57,-43.21,0,*6C
1516007284.47,53624,10.88,73200.5,-0.49,-42.57,-43.15,0,*6C
1516007285.72,53625,10.88,73202.0,-0.49,-42.31,-42.83,0,*63
1516007286.98,53626,10.88,73200.8,-0.51,-42.37,-42.95,0,*68
1516007288.23,53627,10.88,73202.3,-0.51,-43.21,-43.87,0,*6D
1516007289.48,53628,10.88,73198.5,-0.51,-44.01,-44.61,0,*68
1516007290.73,53629,10.88,73200.3,-0.49,-43.67,-44.21,0,*63
1516007291.99,53630,10.88,73206.0,-0.51,-42.83,-43.35,0,*6B
1516007293.21,53631,10.88,73202.3,-0.53,-42.63,-43.09,0,*69
1516007294.41,53632,10.88,73200.3,-0.53,-42.37,-43.01,0,*63
1516007295.61,53633,10.88,73200.8,-0.53,-42.51,-43.01,0,*62
1516007296.86,53634,10.88,73202.8,-0.53,-42.83,-43.29,0,*60